Yuma MCAS, AZ

12:54 PM MST on August 21, 2017 (GMT -0700)
Yuma Marine Corps Air Station

Weather History for KNYL - May, 2012

Change the Weather History Date:

Wednesday, May 9, 2012

  Actual Average Record
Temperature  
Mean Temperature 83 °F 80 °F  
Max Temperature 101 °F 93 °F 110 °F (1934)
Min Temperature 65 °F 66 °F 45 °F (1930)
Degree Days  
Heating Degree Days 0 0  
Month to date heating degree days 0 0  
Since 1 July heating degree days 697 686  
Cooling Degree Days 18 15  
Month to date cooling degree days 133 121  
Year to date cooling degree days 523 527  
Growing Degree Days 32 (Base 50)    
Moisture  
Dew Point 32 °F    
Average Humidity 19    
Maximum Humidity 31    
Minimum Humidity 7    
Precipitation  
Precipitation 0.00 in 0.00 in 0.08 in (1912)
Month to date precipitation 0.00 0.02  
Year to date precipitation 0.09 1.26  
Sea Level Pressure  
Sea Level Pressure 29.75 in    
Wind  
Wind Speed 0 mph (East)    
Max Wind Speed 0 mph    
Max Gust Speed 0 mph    
Visibility 10 miles    
Events      
T = Trace of Precipitation, MM = Missing Value Source: NWS Daily Summary

Daily Weather History Graph

Daily Weather History Graph

Search for Another Location

Airport or City:

Trip Planner

Search our weather history database for the weather conditions in past years. The results will help you decide how hot, cold, wet, or windy it might be!

Date:

Astronomy

May. 09, 2012 Rise Set
Actual Time 5:43 AM MST 7:26 PM MST
Civil Twilight 5:17 AM MST 7:53 PM MST
Nautical Twilight 4:44 AM MST 8:25 PM MST
Astronomical Twilight 4:10 AM MST 8:59 PM MST
Moon 11:27 PM MST (5/9) 9:06 AM MST (5/9)
Length of Visible Light 14h 36m
Length of Day
13h 42m
Waning Gibbous, 82% of the Moon is Illuminated
May 9
Waning Gibbous
May 12
Last Quarter
May 20
New
May 28
First Quarter
Jun 4
Full

Hourly Weather History & Observations

Time (MST) Temp. Dew Point Humidity Pressure Visibility Wind Dir Wind Speed Gust Speed Precip Events Conditions
12:55 AM 73.0 °F 28.9 °F 20% 29.77 in 10.0 mi Calm Calm - N/A   Clear
1:55 AM 68.0 °F 36.0 °F 31% 29.75 in 10.0 mi Calm Calm - N/A   Clear
2:55 AM 70.0 °F 30.0 °F 23% 29.75 in 10.0 mi Calm Calm - N/A   Clear
3:55 AM 68.0 °F 30.0 °F 24% 29.74 in 10.0 mi Calm Calm - N/A   Clear
4:55 AM 64.9 °F 33.1 °F 31% 29.74 in 10.0 mi Calm Calm - N/A   Clear
5:55 AM 66.0 °F 34.0 °F 30% 29.75 in 10.0 mi Calm Calm - N/A   Clear
6:02 AM 66.2 °F 35.6 °F 32% 29.76 in 6.0 mi North 3.5 mph - N/A   Partly Cloudy
6:55 AM 71.1 °F 27.0 °F 19% 29.77 in 10.0 mi NE 5.8 mph - N/A   Scattered Clouds
7:55 AM 77.0 °F 25.0 °F 15% 29.78 in 10.0 mi NNE 9.2 mph - N/A   Partly Cloudy
8:55 AM 84.9 °F 28.9 °F 13% 29.79 in 10.0 mi NNE 11.5 mph - N/A   Partly Cloudy
9:55 AM 90.0 °F 34.0 °F 14% 29.79 in 10.0 mi ENE 13.8 mph 18.4 mph N/A   Partly Cloudy
10:55 AM 93.9 °F 35.1 °F 13% 29.79 in 10.0 mi East 15.0 mph 20.7 mph N/A   Partly Cloudy
11:55 AM 95.0 °F 36.0 °F 13% 29.78 in 10.0 mi ENE 10.4 mph 19.6 mph N/A   Partly Cloudy
12:55 PM 97.0 °F 33.1 °F 11% 29.75 in 10.0 mi East 12.7 mph 24.2 mph N/A   Partly Cloudy
1:55 PM 98.1 °F 30.0 °F 9% 29.73 in 10.0 mi East 11.5 mph 17.3 mph N/A   Partly Cloudy
2:55 PM 100.0 °F 28.0 °F 8% 29.70 in 10.0 mi NNW 8.1 mph - N/A   Partly Cloudy
3:55 PM 99.0 °F 25.0 °F 7% 29.70 in 10.0 mi Calm Calm - N/A   Scattered Clouds
4:55 PM 97.0 °F 27.0 °F 8% 29.69 in 10.0 mi North 4.6 mph - N/A   Clear
5:55 PM 96.1 °F 26.1 °F 8% 29.69 in 7.0 mi Variable 5.8 mph 29.9 mph N/A   Partly Cloudy
6:55 PM 97.0 °F 23.0 °F 7% 29.69 in 10.0 mi SSE 5.8 mph - N/A   Partly Cloudy
7:55 PM 90.0 °F 30.9 °F 12% 29.72 in 10.0 mi SSE 13.8 mph - N/A   Clear
8:55 PM 84.9 °F 34.0 °F 16% 29.74 in 10.0 mi SSE 16.1 mph - N/A   Clear
9:14 PM 84.2 °F 39.2 °F 20% 29.77 in 10.0 mi SE 24.2 mph 33.4 mph N/A   Clear
9:55 PM 84.0 °F 37.9 °F 19% 29.78 in 10.0 mi SSE 19.6 mph - N/A   Clear
10:55 PM 82.0 °F 37.9 °F 21% 29.78 in 10.0 mi SSE 10.4 mph - N/A   Clear
11:55 PM 77.0 °F 39.9 °F 26% 29.78 in 10.0 mi SSE 3.5 mph - N/A   Clear